KQ4NAL Weather Reports


time (UTC)temp
C
wind
direction
speed
KPH
gust
KPH
rain 1hr
cm
rain 24hr
cm
rain mn
cm
humidity
%
barometer
mb
20260904054352 23 344 0.0 0.0 0.00 0.00 0.00 99 1016.8
20260904053847 22 346 0.0 0.0 0.00 0.00 0.00 99 1016.8
20260904053346 22 346 0.0 0.0 0.00 0.00 0.00 99 1016.9
20260904052843 23 346 0.0 0.0 0.00 0.00 0.00 99 1016.8
20260904052338 23 347 0.0 0.0 0.00 0.00 0.00 99 1017.0
20260904051835 23 344 0.0 0.0 0.00 0.00 0.00 99 1016.9
20260904051330 23 344 0.0 0.0 0.00 0.00 0.00 99 1016.9
20260904050825 23 344 0.0 0.0 0.00 0.00 0.00 99 1016.9
20260904050322 23 342 0.0 0.0 0.00 0.00 0.00 99 1017.0
20260904045821 23 340 0.0 0.0 0.00 0.00 0.00 99 1016.9
20260904045317 23 348 0.0 0.0 0.00 0.00 0.00 99 1016.8
20260904044811 23 348 0.0 0.0 0.00 0.00 0.00 98 1017.2
20260904044308 23 348 0.0 0.0 0.00 0.00 0.00 98 1017.2
20260904043804 23 348 0.0 0.0 0.00 0.00 0.00 98 1016.9
20260904043300 23 348 0.0 0.0 0.00 0.00 0.00 98 1017.1
20260904042754 23 348 0.0 0.0 0.00 0.00 0.00 98 1016.9
20260904042251 23 347 0.0 0.0 0.00 0.00 0.00 98 1016.7
20260904041750 23 347 0.0 0.0 0.00 0.00 0.00 98 1016.8
20260904041247 23 347 0.0 0.0 0.00 0.00 0.00 98 1016.8
20260904040743 23 347 0.0 0.0 0.00 0.00 0.00 98 1016.9
20260904040238 23 348 0.0 0.0 0.00 0.00 0.00 97 1016.7
20260904035734 23 348 0.0 0.0 0.00 0.00 0.00 97 1016.8
20260904035229 23 348 0.0 0.0 0.00 0.00 0.00 97 1016.6
20260904034728 23 348 0.0 0.0 0.00 0.00 0.00 97 1016.5
20260904034224 23 352 0.0 0.0 0.00 0.00 0.00 97 1016.7
20260904033720 23 343 0.0 0.0 0.00 0.00 0.00 97 1016.7
20260904033216 23 343 0.0 0.0 0.00 0.00 0.00 97 1016.9
20260904032712 23 343 0.0 0.0 0.00 0.00 0.00 97 1016.8
20260904032211 23 344 0.0 0.0 0.00 0.00 0.00 96 1016.8
20260904031711 24 344 0.0 0.0 0.00 0.00 0.00 96 1016.8
20260904031206 24 343 0.0 0.0 0.00 0.00 0.00 96 1016.8
20260904030702 24 345 0.0 0.0 0.00 0.00 0.00 96 1016.8
20260904030157 24 345 0.0 0.0 0.00 0.00 0.00 96 1016.8
20260904025654 24 344 0.0 0.0 0.00 0.00 0.00 95 1016.8
20260904025148 24 345 0.0 0.0 0.00 0.00 0.00 95 1017.0
20260904024644 24 345 0.0 0.0 0.00 0.00 0.00 95 1016.9
20260904024140 25 345 0.0 0.0 0.00 0.00 0.00 94 1017.0
20260904023636 24 345 0.0 0.0 0.00 0.00 0.00 94 1017.0
20260904023131 24 345 0.0 0.0 0.00 0.00 0.00 93 1017.0
20260904022631 25 345 0.0 0.0 0.00 0.00 0.00 93 1016.9
20260904022128 25 345 0.0 0.0 0.00 0.00 0.00 93 1017.0
20260904021624 25 345 0.0 0.0 0.00 0.00 0.00 93 1016.8
20260904021119 25 349 0.0 0.0 0.00 0.00 0.00 92 1016.9
20260904020615 25 349 0.0 0.0 0.00 0.00 0.00 91 1016.8
20260904020109 25 349 0.0 0.0 0.00 0.00 0.00 90 1016.8
20260904015603 25 349 0.0 0.0 0.00 0.00 0.00 91 1016.9
20260904015102 25 340 0.0 0.0 0.00 0.00 0.00 92 1016.9
20260904014601 25 346 0.0 0.0 0.00 0.00 0.00 91 1016.9
20260904014057 25 346 0.0 0.0 0.00 0.00 0.00 90 1017.2
20260904013554 25 346 0.0 0.0 0.00 0.00 0.00 91 1017.2
20260904013050 25 345 0.0 0.0 0.00 0.00 0.00 90 1017.1
20260904012550 25 345 0.0 0.0 0.00 0.00 0.00 90 1016.9
20260904012044 26 345 0.0 0.0 0.00 0.00 0.00 90 1016.8
20260904011543 26 345 0.0 0.0 0.00 0.00 0.00 90 1016.8
20260904011039 26 344 0.0 0.0 0.00 0.00 0.00 89 1017.0
20260904010535 26 345 0.0 0.0 0.00 0.00 0.00 88 1016.6
20260904010031 26 345 0.0 0.0 0.00 0.00 0.00 87 1016.8
20260904005531 26 345 0.0 0.0 0.00 0.00 0.00 86 1016.9
20260904005027 26 345 0.0 0.0 0.00 0.00 0.00 85 1016.5
20260904004522 27 345 0.0 0.0 0.00 0.00 0.00 85 1016.7
20260904004022 27 345 0.0 0.0 0.00 0.00 0.00 84 1016.3
20260904003518 27 345 0.0 0.0 0.00 0.00 0.00 82 1016.4
20260904003014 27 345 0.0 0.0 0.00 0.00 0.00 82 1016.4
20260904002510 28 345 0.0 0.0 0.00 0.00 0.00 81 1016.5
20260904002009 28 345 0.0 0.0 0.00 0.00 0.00 80 1016.4
20260904001505 28 345 0.0 0.0 0.00 0.00 0.00 80 1016.3
20260904001004 28 345 0.0 0.0 0.00 0.00 0.00 80 1016.2
20260904000504 28 345 0.0 0.0 0.00 0.00 0.00 79 1016.2
20260904000000 29 345 0.0 0.0 0.00 0.00 0.00 78 1016.2
20260903235455 30 347 0.0 0.0 0.00 0.00 0.00 77 1016.0
20260903234954 30 347 0.0 0.0 0.00 0.00 0.00 76 1016.2
20260903234450 30 347 0.0 0.0 0.00 0.00 0.00 73 1016.0
20260903233947 31 347 0.0 0.0 0.00 0.00 0.00 74 1016.0
20260903233442 31 347 0.0 0.0 0.00 0.00 0.00 71 1016.1
20260903232937 32 335 0.0 0.0 0.00 0.00 0.00 70 1015.9
20260903232432 32 345 0.0 0.0 0.00 0.00 0.00 65 1015.9
20260903231932 33 332 0.0 0.0 0.00 0.00 0.00 65 1015.9
20260903231427 33 338 0.0 0.0 0.00 0.00 0.00 62 1015.8
20260903230922 33 334 0.0 0.0 0.00 0.00 0.00 58 1015.7
20260903230418 33 336 0.0 0.0 0.00 0.00 0.00 60 1015.9
20260903225914 33 285 1.6 3.2 0.00 0.00 0.00 58 1015.9
20260903225409 33 311 0.0 0.0 0.00 0.00 0.00 57 1016.0
20260903224905 33 293 0.0 0.0 0.00 0.00 0.00 57 1015.9
20260903224401 34 346 1.6 3.2 0.00 0.00 0.00 57 1015.8
20260903223857 34 349 0.0 0.0 0.00 0.00 0.00 56 1015.9
20260903223355 34 188 3.2 4.8 0.00 0.00 0.00 56 1015.8
20260903222850 34 311 0.0 1.6 0.00 0.00 0.00 57 1015.8
20260903222350 35 332 1.6 1.6 0.00 0.00 0.00 55 1015.8
20260903221845 34 345 1.6 3.2 0.00 0.00 0.00 56 1015.5
20260903221344 34 238 3.2 8.0 0.00 0.00 0.00 56 1015.4
20260903220842 35 274 1.6 1.6 0.00 0.00 0.00 54 1015.6
20260903220336 35 289 3.2 3.2 0.00 0.00 0.00 54 1015.5
20260903215834 34 212 4.8 4.8 0.00 0.00 0.00 57 1015.3
20260903215326 35 337 1.6 1.6 0.00 0.00 0.00 56 1015.3
20260903214823 35 235 4.8 4.8 0.00 0.00 0.00 54 1015.3
20260903214320 35 325 4.8 4.8 0.00 0.00 0.00 52 1015.5
20260903213814 35 228 8.0 9.7 0.00 0.00 0.00 52 1015.6
20260903213309 35 346 1.6 1.6 0.00 0.00 0.00 51 1015.3
20260903212805 35 227 6.4 8.0 0.00 0.00 0.00 53 1015.4
20260903212302 35 355 4.8 8.0 0.00 0.00 0.00 52 1015.6
20260903211800 35 225 8.0 8.0 0.00 0.00 0.00 54 1015.4
20260903211257 35 326 1.6 3.2 0.00 0.00 0.00 52 1015.4
20260903210753 35 193 8.0 12.9 0.00 0.00 0.00 53 1015.6
20260903210248 35 220 9.7 11.3 0.00 0.00 0.00 53 1015.6
20260903205747 36 314 1.6 3.2 0.00 0.00 0.00 49 1015.7
20260903205247 36 254 4.8 4.8 0.00 0.00 0.00 51 1015.8
20260903204743 36 216 8.0 12.9 0.00 0.00 0.00 50 1015.6
20260903204239 36 326 1.6 1.6 0.00 0.00 0.00 52 1015.8
20260903203734 33 291 0.0 1.6 0.00 0.00 0.00 58 1015.6
20260903203230 35 349 3.2 3.2 0.00 0.00 0.00 55 1015.7
20260903202723 35 252 4.8 8.0 0.00 0.00 0.00 52 1016.0
20260903202220 35 224 8.0 11.3 0.00 0.00 0.00 53 1016.0
20260903201719 36 224 6.4 9.7 0.00 0.00 0.00 51 1016.1
20260903201214 36 347 0.0 0.0 0.00 0.00 0.00 49 1016.1
20260903200708 36 293 6.4 9.7 0.00 0.00 0.00 49 1016.3
20260903200204 36 336 4.8 8.0 0.00 0.00 0.00 51 1016.3
20260903195659 36 298 3.2 4.8 0.00 0.00 0.00 49 1016.4
20260903195155 36 281 3.2 3.2 0.00 0.00 0.00 51 1016.5
20260903194655 36 312 4.8 8.0 0.00 0.00 0.00 50 1016.5
20260903194150 36 228 3.2 4.8 0.00 0.00 0.00 50 1016.5
20260903193646 36 116 6.4 11.3 0.00 0.00 0.00 51 1016.6
20260903193146 36 234 6.4 11.3 0.00 0.00 0.00 49 1016.6
20260903192642 36 222 6.4 8.0 0.00 0.00 0.00 49 1016.7
20260903192137 36 294 3.2 3.2 0.00 0.00 0.00 49 1016.8
20260903191634 35 216 11.3 14.5 0.00 0.00 0.00 51 1016.9
20260903191133 36 210 9.7 9.7 0.00 0.00 0.00 50 1016.8
20260903190633 36 218 6.4 12.9 0.00 0.00 0.00 50 1016.9
20260903190133 35 318 3.2 4.8 0.00 0.00 0.00 51 1016.9
20260903185628 35 228 8.0 12.9 0.00 0.00 0.00 51 1016.9
20260903185123 36 182 9.7 11.3 0.00 0.00 0.00 51 1016.9
20260903184620 36 289 4.8 4.8 0.00 0.00 0.00 51 1016.8
20260903184115 36 223 8.0 11.3 0.00 0.00 0.00 51 1016.8
20260903183614 36 351 4.8 4.8 0.00 0.00 0.00 49 1016.8
20260903183109 35 216 14.5 17.7 0.00 0.00 0.00 52 1016.9
20260903182608 35 342 1.6 3.2 0.00 0.00 0.00 54 1016.9
20260903182104 36 344 1.6 1.6 0.00 0.00 0.00 51 1017.1
20260903181602 36 326 8.0 9.7 0.00 0.00 0.00 49 1017.0
20260903181057 36 299 1.6 3.2 0.00 0.00 0.00 51 1017.2
20260903180552 36 339 0.0 0.0 0.00 0.00 0.00 52 1017.0
20260903180047 35 322 0.0 0.0 0.00 0.00 0.00 51 1017.3
20260903175545 36 352 0.0 0.0 0.00 0.00 0.00 49 1017.3
20260903175040 36 337 3.2 4.8 0.00 0.00 0.00 49 1017.4
20260903174535 35 291 3.2 3.2 0.00 0.00 0.00 51 1017.7
20260903174029 36 5 1.6 3.2 0.00 0.00 0.00 50 1017.7
20260903173524 35 324 0.0 0.0 0.00 0.00 0.00 53 1017.6
20260903173020 35 187 8.0 9.7 0.00 0.00 0.00 53 1017.6
20260903172514 35 284 3.2 3.2 0.00 0.00 0.00 52 1017.8
20260903172010 35 358 1.6 3.2 0.00 0.00 0.00 50 1017.9
20260903171505 35 266 1.6 3.2 0.00 0.00 0.00 53 1017.8
20260903171000 35 306 6.4 11.3 0.00 0.00 0.00 49 1017.8
20260903170459 35 344 0.0 0.0 0.00 0.00 0.00 52 1017.7
20260903165954 35 332 6.4 12.9 0.00 0.00 0.00 50 1017.9
20260903165453 35 305 3.2 3.2 0.00 0.00 0.00 51 1017.9
20260903164948 35 335 4.8 4.8 0.00 0.00 0.00 51 1017.9
20260903164444 35 324 6.4 9.7 0.00 0.00 0.00 50 1018.1
20260903163943 35 330 4.8 8.0 0.00 0.00 0.00 51 1018.0
20260903163439 35 303 1.6 1.6 0.00 0.00 0.00 52 1018.0
20260903162935 34 315 1.6 8.0 0.00 0.00 0.00 54 1018.2
20260903162431 35 217 4.8 4.8 0.00 0.00 0.00 55 1018.3
20260903161926 35 356 3.2 4.8 0.00 0.00 0.00 53 1018.5
20260903161421 35 322 1.6 1.6 0.00 0.00 0.00 53 1018.2
20260903160918 34 336 4.8 8.0 0.00 0.00 0.00 54 1018.4
20260903160416 34 303 4.8 8.0 0.00 0.00 0.00 53 1018.7
20260903155915 34 296 6.4 8.0 0.00 0.00 0.00 54 1018.5
20260903155410 35 280 6.4 8.0 0.00 0.00 0.00 52 1018.5
20260903154907 34 314 0.0 1.6 0.00 0.00 0.00 55 1018.4
20260903154402 35 334 0.0 0.0 0.00 0.00 0.00 54 1018.3
20260903153902 34 335 0.0 0.0 0.00 0.00 0.00 54 1018.3
20260903153358 33 340 3.2 4.8 0.00 0.00 0.00 54 1018.2
20260903152854 33 281 3.2 3.2 0.00 0.00 0.00 55 1018.3
20260903152350 33 40 4.8 8.0 0.00 0.00 0.00 59 1018.3
20260903151845 33 344 4.8 8.0 0.00 0.00 0.00 61 1018.4
20260903151341 33 49 4.8 4.8 0.00 0.00 0.00 61 1018.4
20260903150840 33 328 1.6 1.6 0.00 0.00 0.00 62 1018.5
20260903150335 32 345 1.6 3.2 0.00 0.00 0.00 64 1018.3
20260903145830 32 341 1.6 3.2 0.00 0.00 0.00 65 1018.4
20260903145325 32 299 4.8 4.8 0.00 0.00 0.00 65 1018.4
20260903144824 32 343 4.8 4.8 0.00 0.00 0.00 68 1018.2
20260903144320 32 282 1.6 1.6 0.00 0.00 0.00 70 1018.2
20260903143815 31 332 1.6 3.2 0.00 0.00 0.00 71 1018.4
20260903143312 31 347 0.0 0.0 0.00 0.00 0.00 71 1018.3
20260903142807 31 317 0.0 0.0 0.00 0.00 0.00 72 1018.4
20260903142306 30 344 1.6 1.6 0.00 0.00 0.00 74 1018.4
20260903141759 30 324 1.6 3.2 0.00 0.00 0.00 75 1018.3
20260903141255 30 331 1.6 3.2 0.00 0.00 0.00 75 1018.3
20260903140754 30 277 3.2 3.2 0.00 0.00 0.00 77 1018.3
20260903140249 29 328 1.6 3.2 0.00 0.00 0.00 76 1018.5
20260903135740 29 225 4.8 8.0 0.00 0.00 0.00 78 1018.5
20260903135235 29 186 4.8 4.8 0.00 0.00 0.00 78 1018.6
20260903134734 28 197 1.6 4.8 0.00 0.00 0.00 78 1018.6
20260903134230 28 291 0.0 0.0 0.00 0.00 0.00 80 1018.5
20260903133727 28 300 0.0 0.0 0.00 0.00 0.00 79 1018.6
20260903133223 28 344 0.0 0.0 0.00 0.00 0.00 80 1018.7
20260903132723 28 345 0.0 0.0 0.00 0.00 0.00 80 1018.9
20260903132218 27 340 0.0 0.0 0.00 0.00 0.00 82 1019.0
20260903131713 27 317 0.0 0.0 0.00 0.00 0.00 82 1018.9
20260903131213 27 341 0.0 0.0 0.00 0.00 0.00 84 1019.1
20260903130708 26 358 0.0 0.0 0.00 0.00 0.00 85 1019.0
20260903130203 26 318 0.0 0.0 0.00 0.00 0.00 86 1019.0
20260903125700 26 1 0.0 0.0 0.00 0.00 0.00 87 1018.9
20260903125156 26 353 0.0 0.0 0.00 0.00 0.00 88 1019.1
20260903124655 25 351 0.0 0.0 0.00 0.00 0.00 91 1018.9
20260903124155 25 352 0.0 0.0 0.00 0.00 0.00 93 1018.9
20260903123654 23 351 0.0 0.0 0.00 0.00 0.00 98 1019.0
20260903123154 23 355 0.0 0.0 0.00 0.00 0.00 99 1018.6
20260903122653 23 341 0.0 0.0 0.00 0.00 0.00 99 1018.9
20260903122148 22 341 0.0 0.0 0.00 0.00 0.00 99 1018.9
20260903121647 22 352 0.0 0.0 0.00 0.00 0.00 99 1018.9
20260903121143 22 351 0.0 0.0 0.00 0.00 0.00 99 1019.0
20260903120642 22 345 0.0 0.0 0.00 0.00 0.00 99 1019.0
20260903120137 22 346 0.0 0.0 0.00 0.00 0.00 99 1019.0
20260903115635 22 345 0.0 0.0 0.00 0.00 0.00 99 1018.9
20260903115130 21 345 0.0 0.0 0.00 0.00 0.00 99 1019.0
20260903114626 21 345 0.0 0.0 0.00 0.00 0.00 99 1018.7
20260903114121 21 346 0.0 0.0 0.00 0.00 0.00 99 1018.8
20260903113616 21 344 0.0 0.0 0.00 0.00 0.00 99 1018.7
20260903113112 21 346 0.0 0.0 0.00 0.00 0.00 99 1018.8
20260903112609 21 347 0.0 0.0 0.00 0.00 0.00 99 1018.7
20260903112108 21 347 0.0 0.0 0.00 0.00 0.00 99 1018.7
20260903111607 21 344 0.0 0.0 0.00 0.00 0.00 99 1018.8
20260903111058 21 347 0.0 0.0 0.00 0.00 0.00 99 1018.5
20260903110553 21 350 0.0 0.0 0.00 0.00 0.00 99 1018.4
20260903110048 21 350 0.0 0.0 0.00 0.00 0.00 99 1018.4
20260903105543 21 346 0.0 0.0 0.00 0.00 0.00 99 1018.3
20260903105038 21 344 0.0 0.0 0.00 0.00 0.00 99 1018.2
20260903104537 21 345 0.0 0.0 0.00 0.00 0.00 99 1018.3
20260903104033 21 345 0.0 0.0 0.00 0.00 0.00 99 1018.4
20260903103529 21 345 0.0 0.0 0.00 0.00 0.00 99 1018.4
20260903103025 21 345 0.0 0.0 0.00 0.00 0.00 99 1018.1
20260903102520 21 343 0.0 0.0 0.00 0.00 0.00 99 1018.2
20260903102019 21 336 0.0 0.0 0.00 0.00 0.00 99 1018.2
20260903101514 21 354 0.0 0.0 0.00 0.00 0.00 99 1018.2
20260903101010 21 350 0.0 0.0 0.00 0.00 0.00 99 1018.3
20260903100504 21 337 0.0 0.0 0.00 0.00 0.00 99 1018.3
20260903100001 21 347 0.0 0.0 0.00 0.00 0.00 99 1018.1
20260903095455 21 347 0.0 0.0 0.00 0.00 0.00 99 1018.2
20260903094951 21 343 0.0 0.0 0.00 0.00 0.00 99 1018.1
20260903094450 21 343 0.0 0.0 0.00 0.00 0.00 99 1018.2
20260903093946 21 346 0.0 0.0 0.00 0.00 0.00 99 1018.3
20260903093441 21 341 0.0 0.0 0.00 0.00 0.00 99 1018.1
20260903092937 21 346 0.0 0.0 0.00 0.00 0.00 99 1018.1
20260903092437 21 346 0.0 0.0 0.00 0.00 0.00 99 1018.0
20260903091936 21 346 0.0 0.0 0.00 0.00 0.00 99 1018.2
20260903091434 21 346 0.0 0.0 0.00 0.00 0.00 99 1017.9
20260903090929 21 346 0.0 0.0 0.00 0.00 0.00 99 1018.0
20260903090425 21 346 0.0 0.0 0.00 0.00 0.00 99 1018.1
20260903085923 21 346 0.0 0.0 0.00 0.00 0.00 99 1018.1
20260903085422 21 347 0.0 0.0 0.00 0.00 0.00 99 1018.0
20260903084922 21 346 0.0 0.0 0.00 0.00 0.00 99 1017.8
20260903084420 21 346 0.0 0.0 0.00 0.00 0.00 99 1018.0
20260903083916 21 347 0.0 0.0 0.00 0.00 0.00 99 1018.0
20260903083412 21 346 0.0 0.0 0.00 0.00 0.00 99 1018.0
20260903082911 21 346 0.0 0.0 0.00 0.00 0.00 99 1018.0
20260903082406 22 346 0.0 0.0 0.00 0.00 0.00 99 1018.0
20260903081901 22 352 0.0 0.0 0.00 0.00 0.00 99 1017.9
20260903081356 21 345 0.0 0.0 0.00 0.00 0.00 99 1017.8
20260903080852 21 345 0.0 0.0 0.00 0.00 0.00 99 1018.0
20260903080349 21 345 0.0 0.0 0.00 0.00 0.00 99 1018.0
20260903075849 21 345 0.0 0.0 0.00 0.00 0.00 99 1018.0
20260903075345 22 345 0.0 0.0 0.00 0.00 0.00 99 1017.9
20260903074844 22 345 0.0 0.0 0.00 0.00 0.00 99 1017.8
20260903074338 22 345 0.0 0.0 0.00 0.00 0.00 99 1018.1
20260903073834 21 344 0.0 0.0 0.00 0.00 0.00 99 1018.0
20260903073329 22 344 0.0 0.0 0.00 0.00 0.00 99 1018.1
20260903072825 22 343 0.0 0.0 0.00 0.00 0.00 99 1017.9
20260903072321 22 345 0.0 0.0 0.00 0.00 0.00 99 1017.8
20260903071818 22 345 0.0 0.0 0.00 0.00 0.00 99 1017.9
20260903071314 22 345 0.0 0.0 0.00 0.00 0.00 99 1017.8
20260903070814 22 340 0.0 0.0 0.00 0.00 0.00 99 1018.0
20260903070309 22 346 0.0 0.0 0.00 0.00 0.00 99 1017.7
20260903065804 22 344 0.0 0.0 0.00 0.00 0.00 99 1017.7
20260903065306 22 350 0.0 0.0 0.00 0.00 0.00 99 1017.8
20260903064803 22 338 0.0 0.0 0.00 0.00 0.00 99 1017.8
20260903064258 22 341 0.0 0.0 0.00 0.00 0.00 99 1017.8
20260903063754 22 341 0.0 0.0 0.00 0.00 0.00 99 1017.8
20260903063249 22 342 0.0 0.0 0.00 0.00 0.00 99 1017.7
20260903062745 22 342 0.0 0.0 0.00 0.00 0.00 99 1017.7
20260903062239 22 342 0.0 0.0 0.00 0.00 0.00 99 1017.8
20260903061736 22 342 0.0 0.0 0.00 0.00 0.00 99 1017.8
20260903061233 22 342 0.0 0.0 0.00 0.00 0.00 99 1017.6
20260903060730 22 343 0.0 0.0 0.00 0.00 0.00 99 1017.8
20260903060229 22 343 0.0 0.0 0.00 0.00 0.00 99 1017.8
20260903055726 22 343 0.0 0.0 0.00 0.00 0.00 99 1017.7
20260903055225 22 344 0.0 0.0 0.00 0.00 0.00 99 1017.8